This is the latest recevied weather packets stored in our database for station/object N5YHM-13. If no packets are shown the sender has not sent any weather packets the latest 10 day(s).
| Time | Temp. | Humidity | Pressure | Rain* | Wind** | Luminosity | Snow |
|---|---|---|---|---|---|---|---|
| 1777527352 | 19.44° C | 99% | 1014.9 hPa | 1.27 mm | - | 0 W/m² | - |
| 1777527049 | 19.44° C | 99% | 1014.9 hPa | 0 mm | - | 0 W/m² | - |
| 1777526744 | 19.44° C | 99% | 1015.3 hPa | 1.78 mm | - | 0 W/m² | - |
| 1777526440 | 19.44° C | 99% | 1015.6 hPa | 0 mm | - | 0 W/m² | - |
| 1777526134 | 19.44° C | 99% | 1016 hPa | 1.78 mm | - | 0 W/m² | - |
| 1777525831 | 19.44° C | 99% | 1016 hPa | 0 mm | - | 0 W/m² | - |
| 1777525529 | 19.44° C | 99% | 1016.3 hPa | 1.27 mm | - | 0 W/m² | - |
| 1777525225 | 19.44° C | 99% | 1016 hPa | 0 mm | - | 0 W/m² | - |
| 1777524921 | 19.44° C | 99% | 1016.1 hPa | 1.78 mm | - | 0 W/m² | - |
| 1777524619 | 19.44° C | 99% | 1016.3 hPa | 0 mm | - | 0 W/m² | - |
| 1777524317 | 19.44° C | 99% | 1016.1 hPa | 1.78 mm | - | 0 W/m² | - |
| 1777524012 | 19.44° C | 99% | 1016.1 hPa | 1.27 mm | - | 0 W/m² | - |
| 1777523709 | 19.44° C | 99% | 1016.3 hPa | 1.78 mm | - | 0 W/m² | - |
| 1777523405 | 19.44° C | 99% | 1017.1 hPa | 1.27 mm | - | 0 W/m² | - |
| 1777523102 | 19.44° C | 99% | 1017 hPa | 1.78 mm | - | 0 W/m² | - |
| 1777522798 | 19.44° C | 99% | 1017.3 hPa | 3.05 mm | - | 0 W/m² | - |
| 1777522494 | 19.44° C | 99% | 1017.1 hPa | 3.05 mm | - | 0 W/m² | - |
| 1777522192 | 19.44° C | 99% | 1016.8 hPa | 1.27 mm | - | 0 W/m² | - |
| 1777521889 | 19.44° C | 99% | 1017.2 hPa | 1.27 mm | - | 0 W/m² | - |
| 1777521585 | 19.44° C | 99% | 1017.3 hPa | 3.56 mm | - | 0 W/m² | - |
| 1777521283 | 19.44° C | 99% | 1017.2 hPa | 1.27 mm | - | 0 W/m² | - |
| 1777520979 | 19.44° C | 99% | 1017 hPa | 3.05 mm | - | 0 W/m² | - |
| 1777520677 | 19.44° C | 99% | 1017 hPa | 1.78 mm | - | 0 W/m² | - |
| 1777520373 | 19.44° C | 99% | 1017.3 hPa | 1.27 mm | - | 0 W/m² | - |
| 1777520071 | 19.44° C | 99% | 1017.3 hPa | 1.78 mm | - | 0 W/m² | - |
* Rain latest hour (hover to see other rain measurements)
** Current wind speed in m/s (hover to see current wind gust speed)